Torna al catalogo

STARLINK-30509

AttivoComunicazioniVLEO
NORAD 57977·PAYLOAD·🇺🇸 United States

Lanciato Sep 30, 2023 da Cape Canaveral Space Force Station

Loading…

Prossimi Passaggi (prossime 24 ore)

TLE

AggiornatoSource: CelesTrak SupGP

Epoca: Sep 14, 2026, 14:34 UTC

1 57977C 23151P   26257.60743056  .00016546  00000+0  59928-3 0  2574
2 57977  43.0023   3.7701 0001362 262.5628 184.3152 15.27571345    15

Traccia STARLINK-30509 in tempo reale con AllMySat

Download on the App Store